timestamp, 		tick, 	maxbdip, 	maxindex, 	minbdip, 	minindex, 	change,	steepness, 	maxaftdip, 	maxaftidx, 	minaftdip, 	minaftindex, 	rise, 	alert
13042021_19:42:46,	6.172,	6.311,		224,		5.259,		-25068,		-2.20,	0.11,		1000000.00,	-1,		1000000.00,		-1,		0.00,
13042021_19:42:57,	6.173,	6.311,		223,		5.259,		-25069,		-2.20,	0.06,		1000000.00,	-1,		1000000.00,		-1,		0.00,
13042021_19:43:07,	6.193,	6.311,		222,		5.259,		-25070,		-1.87,	-0.17,		1000000.00,	-1,		1000000.00,		-1,		0.00,
13042021_19:43:17,	6.175,	6.311,		221,		5.259,		-25071,		-2.16,	-0.19,		1000000.00,	-1,		1000000.00,		-1,		0.00,
13042021_19:43:28,	6.169,	6.311,		220,		5.259,		-25072,		-2.25,	0.01,		1000000.00,	-1,		1000000.00,		-1,		0.00,
13042021_19:43:38,	6.176,	6.311,		219,		5.259,		-25073,		-2.15,	0.17,		1000000.00,	-1,		1000000.00,		-1,		0.00,
13042021_19:43:50,	6.188,	6.311,		218,		5.259,		-25074,		-1.95,	0.03,		1000000.00,	-1,		1000000.00,		-1,		0.00,
13042021_19:44:01,	6.167,	6.311,		217,		5.259,		-25075,		-2.29,	-0.09,		1000000.00,	-1,		1000000.00,		-1,		0.00,
13042021_19:44:11,	6.180,	6.311,		216,		5.259,		-25076,		-2.08,	-0.02,		1000000.00,	-1,		1000000.00,		-1,		0.00,
13042021_19:44:22,	6.171,	6.311,		215,		5.259,		-25077,		-2.21,	0.10,		1000000.00,	-1,		1000000.00,		-1,		0.00,
13042021_19:44:32,	6.171,	6.311,		214,		5.259,		-25078,		-2.21,	0.09,		1000000.00,	-1,		1000000.00,		-1,		0.00,
13042021_19:44:43,	6.158,	6.311,		213,		5.259,		-25079,		-2.42,	0.13,		1000000.00,	-1,		1000000.00,		-1,		0.00,
13042021_19:44:53,	6.158,	6.311,		212,		5.259,		-25080,		-2.42,	0.28,		1000000.00,	-1,		1000000.00,		-1,		0.00,
13042021_19:45:03,	6.180,	6.311,		211,		5.259,		-25081,		-2.08,	0.04,		1000000.00,	-1,		1000000.00,		-1,		0.00,
13042021_19:45:14,	6.180,	6.311,		210,		5.259,		-25082,		-2.08,	-0.24,		1000000.00,	-1,		1000000.00,		-1,		0.00,
13042021_19:45:24,	6.184,	6.311,		209,		5.259,		-25083,		-2.01,	-0.39,		1000000.00,	-1,		1000000.00,		-1,		0.00,
13042021_19:45:35,	6.171,	6.311,		208,		5.259,		-25084,		-2.22,	-0.14,		1000000.00,	-1,		1000000.00,		-1,		0.00,
13042021_19:45:46,	6.175,	6.311,		207,		5.259,		-25085,		-2.16,	0.11,		1000000.00,	-1,		1000000.00,		-1,		0.00,
13042021_19:45:57,	6.175,	6.311,		206,		5.259,		-25086,		-2.16,	0.12,		1000000.00,	-1,		1000000.00,		-1,		0.00,
13042021_19:46:07,	6.169,	6.311,		205,		5.259,		-25087,		-2.25,	0.09,		1000000.00,	-1,		1000000.00,		-1,		0.00,
13042021_19:46:18,	6.158,	6.311,		204,		5.259,		-25088,		-2.43,	0.15,		1000000.00,	-1,		1000000.00,		-1,		0.00,
13042021_19:46:28,	6.158,	6.311,		203,		5.259,		-25089,		-2.43,	0.27,		1000000.00,	-1,		1000000.00,		-1,		0.00,
13042021_19:46:38,	6.183,	6.311,		202,		5.259,		-25090,		-2.04,	0.03,		1000000.00,	-1,		1000000.00,		-1,		0.00,
13042021_19:46:49,	6.188,	6.311,		201,		5.259,		-25091,		-1.95,	-0.35,		1000000.00,	-1,		1000000.00,		-1,		0.00,
13042021_19:46:59,	6.188,	6.311,		200,		5.259,		-25092,		-1.95,	-0.49,		1000000.00,	-1,		1000000.00,		-1,		0.00,
13042021_19:47:10,	6.200,	6.311,		199,		5.259,		-25093,		-1.76,	-0.39,		1000000.00,	-1,		1000000.00,		-1,		0.00,
13042021_19:47:20,	6.187,	6.311,		198,		5.259,		-25094,		-1.97,	-0.13,		1000000.00,	-1,		1000000.00,		-1,		0.00,
13042021_19:47:30,	6.200,	6.311,		197,		5.259,		-25095,		-1.76,	-0.09,		1000000.00,	-1,		1000000.00,		-1,		0.00,
13042021_19:47:41,	6.205,	6.311,		196,		5.259,		-25096,		-1.67,	-0.14,		1000000.00,	-1,		1000000.00,		-1,		0.00,
13042021_19:47:53,	6.205,	6.311,		195,		5.259,		-25097,		-1.67,	-0.19,		1000000.00,	-1,		1000000.00,		-1,		0.00,
13042021_19:48:04,	6.207,	6.311,		194,		5.259,		-25098,		-1.65,	-0.20,		1000000.00,	-1,		1000000.00,		-1,		0.00,
13042021_19:48:14,	6.213,	6.311,		193,		5.259,		-25099,		-1.56,	-0.11,		1000000.00,	-1,		1000000.00,		-1,		0.00,
13042021_19:48:24,	6.212,	6.311,		192,		5.259,		-25100,		-1.58,	-0.11,		1000000.00,	-1,		1000000.00,		-1,		0.00,
13042021_19:48:35,	6.212,	6.311,		191,		5.259,		-25101,		-1.58,	-0.09,		1000000.00,	-1,		1000000.00,		-1,		0.00,
13042021_19:48:45,	6.212,	6.311,		190,		5.259,		-25102,		-1.58,	-0.03,		1000000.00,	-1,		1000000.00,		-1,		0.00,
13042021_19:48:56,	6.194,	6.311,		189,		5.259,		-25103,		-1.85,	0.15,		1000000.00,	-1,		1000000.00,		-1,		0.00,
13042021_19:49:06,	6.194,	6.311,		188,		5.259,		-25104,		-1.85,	0.28,		1000000.00,	-1,		1000000.00,		-1,		0.00,
13042021_19:49:16,	6.187,	6.311,		187,		5.259,		-25105,		-1.97,	0.34,		1000000.00,	-1,		1000000.00,		-1,		0.00,
13042021_19:49:27,	6.187,	6.311,		186,		5.259,		-25106,		-1.97,	0.26,		1000000.00,	-1,		1000000.00,		-1,		0.00,
13042021_19:49:37,	6.197,	6.311,		185,		5.259,		-25107,		-1.80,	0.03,		1000000.00,	-1,		1000000.00,		-1,		0.00,
13042021_19:49:49,	6.197,	6.311,		184,		5.259,		-25108,		-1.80,	-0.11,		1000000.00,	-1,		1000000.00,		-1,		0.00,
13042021_19:50:00,	6.197,	6.311,		183,		5.259,		-25109,		-1.80,	-0.18,		1000000.00,	-1,		1000000.00,		-1,		0.00,
13042021_19:50:10,	6.198,	6.311,		182,		5.259,		-25110,		-1.79,	-0.09,		1000000.00,	-1,		1000000.00,		-1,		0.00,
13042021_19:50:20,	6.198,	6.311,		181,		5.259,		-25111,		-1.79,	-0.01,		1000000.00,	-1,		1000000.00,		-1,		0.00,
13042021_19:50:31,	6.194,	6.311,		180,		5.259,		-25112,		-1.86,	0.03,		1000000.00,	-1,		1000000.00,		-1,		0.00,
13042021_19:50:41,	6.207,	6.311,		179,		5.259,		-25113,		-1.65,	-0.04,		1000000.00,	-1,		1000000.00,		-1,		0.00,
13042021_19:50:52,	6.204,	6.311,		178,		5.259,		-25114,		-1.69,	-0.12,		1000000.00,	-1,		1000000.00,		-1,		0.00,
13042021_19:51:02,	6.204,	6.311,		177,		5.259,		-25115,		-1.69,	-0.14,		1000000.00,	-1,		1000000.00,		-1,		0.00,
13042021_19:51:12,	6.208,	6.311,		176,		5.259,		-25116,		-1.64,	-0.09,		1000000.00,	-1,		1000000.00,		-1,		0.00,
13042021_19:51:23,	6.208,	6.311,		175,		5.259,		-25117,		-1.64,	-0.03,		1000000.00,	-1,		1000000.00,		-1,		0.00,
13042021_19:51:34,	6.192,	6.311,		174,		5.259,		-25118,		-1.88,	0.07,		1000000.00,	-1,		1000000.00,		-1,		0.00,
13042021_19:51:45,	6.213,	6.311,		173,		5.259,		-25119,		-1.55,	0.05,		1000000.00,	-1,		1000000.00,		-1,		0.00,
13042021_19:51:55,	6.213,	6.311,		172,		5.259,		-25120,		-1.56,	-0.09,		1000000.00,	-1,		1000000.00,		-1,		0.00,
13042021_19:52:06,	6.213,	6.311,		171,		5.259,		-25121,		-1.56,	-0.21,		1000000.00,	-1,		1000000.00,		-1,		0.00,
13042021_19:52:16,	6.196,	6.311,		170,		5.259,		-25122,		-1.82,	-0.03,		1000000.00,	-1,		1000000.00,		-1,		0.00,
13042021_19:52:26,	6.211,	6.311,		169,		5.259,		-25123,		-1.59,	0.15,		1000000.00,	-1,		1000000.00,		-1,		0.00,
13042021_19:52:37,	6.211,	6.311,		168,		5.259,		-25124,		-1.59,	0.04,		1000000.00,	-1,		1000000.00,		-1,		0.00,
13042021_19:52:47,	6.211,	6.311,		167,		5.259,		-25125,		-1.59,	-0.10,		1000000.00,	-1,		1000000.00,		-1,		0.00,
13042021_19:52:58,	6.211,	6.311,		166,		5.259,		-25126,		-1.59,	-0.12,		1000000.00,	-1,		1000000.00,		-1,		0.00,
13042021_19:53:08,	6.214,	6.311,		165,		5.259,		-25127,		-1.54,	-0.03,		1000000.00,	-1,		1000000.00,		-1,		0.00,
13042021_19:53:19,	6.214,	6.311,		164,		5.259,		-25128,		-1.54,	-0.05,		1000000.00,	-1,		1000000.00,		-1,		0.00,
13042021_19:53:30,	6.207,	6.311,		163,		5.259,		-25129,		-1.65,	0.01,		1000000.00,	-1,		1000000.00,		-1,		0.00,
13042021_19:53:41,	6.226,	6.311,		162,		5.259,		-25130,		-1.35,	-0.06,		1000000.00,	-1,		1000000.00,		-1,		0.00,
13042021_19:53:52,	6.213,	6.311,		161,		5.259,		-25131,		-1.55,	-0.09,		1000000.00,	-1,		1000000.00,		-1,		0.00,
13042021_19:54:02,	6.229,	6.311,		160,		5.259,		-25132,		-1.30,	-0.18,		1000000.00,	-1,		1000000.00,		-1,		0.00,
13042021_19:54:13,	6.229,	6.311,		159,		5.259,		-25133,		-1.30,	-0.20,		1000000.00,	-1,		1000000.00,		-1,		0.00,
13042021_19:54:23,	6.203,	6.311,		158,		5.259,		-25134,		-1.72,	0.06,		1000000.00,	-1,		1000000.00,		-1,		0.00,
13042021_19:54:34,	6.213,	6.311,		157,		5.259,		-25135,		-1.55,	0.22,		1000000.00,	-1,		1000000.00,		-1,		0.00,
13042021_19:54:44,	6.208,	6.311,		156,		5.259,		-25136,		-1.63,	0.30,		1000000.00,	-1,		1000000.00,		-1,		0.00,
13042021_19:54:55,	6.208,	6.311,		155,		5.259,		-25137,		-1.63,	0.12,		1000000.00,	-1,		1000000.00,		-1,		0.00,
13042021_19:55:05,	6.208,	6.311,		154,		5.259,		-25138,		-1.63,	-0.00,		1000000.00,	-1,		1000000.00,		-1,		0.00,
13042021_19:55:15,	6.208,	6.311,		153,		5.259,		-25139,		-1.63,	0.04,		1000000.00,	-1,		1000000.00,		-1,		0.00,
13042021_19:55:26,	6.208,	6.311,		152,		5.259,		-25140,		-1.63,	0.00,		1000000.00,	-1,		1000000.00,		-1,		0.00,
13042021_19:55:37,	6.195,	6.311,		151,		5.259,		-25141,		-1.84,	0.11,		1000000.00,	-1,		1000000.00,		-1,		0.00,
13042021_19:55:49,	6.195,	6.311,		150,		5.259,		-25142,		-1.84,	0.21,		1000000.00,	-1,		1000000.00,		-1,		0.00,
13042021_19:55:59,	6.195,	6.311,		149,		5.259,		-25143,		-1.84,	0.21,		1000000.00,	-1,		1000000.00,		-1,		0.00,
13042021_19:56:10,	6.195,	6.311,		148,		5.259,		-25144,		-1.84,	0.11,		1000000.00,	-1,		1000000.00,		-1,		0.00,
13042021_19:56:20,	6.192,	6.311,		147,		5.259,		-25145,		-1.89,	0.03,		1000000.00,	-1,		1000000.00,		-1,		0.00,
13042021_19:56:30,	6.192,	6.311,		146,		5.259,		-25146,		-1.89,	0.05,		1000000.00,	-1,		1000000.00,		-1,		0.00,
13042021_19:56:41,	6.199,	6.311,		145,		5.259,		-25147,		-1.78,	-0.00,		1000000.00,	-1,		1000000.00,		-1,		0.00,
13042021_19:56:51,	6.216,	6.311,		144,		5.259,		-25148,		-1.50,	-0.23,		1000000.00,	-1,		1000000.00,		-1,		0.00,
13042021_19:57:02,	6.216,	6.311,		143,		5.259,		-25149,		-1.50,	-0.40,		1000000.00,	-1,		1000000.00,		-1,		0.00,
13042021_19:57:12,	6.215,	6.311,		142,		5.259,		-25150,		-1.53,	-0.33,		1000000.00,	-1,		1000000.00,		-1,		0.00,
13042021_19:57:23,	6.197,	6.311,		141,		5.259,		-25151,		-1.81,	0.03,		1000000.00,	-1,		1000000.00,		-1,		0.00,
13042021_19:57:34,	6.197,	6.311,		140,		5.259,		-25152,		-1.81,	0.32,		1000000.00,	-1,		1000000.00,		-1,		0.00,
13042021_19:57:45,	6.197,	6.311,		139,		5.259,		-25153,		-1.81,	0.30,		1000000.00,	-1,		1000000.00,		-1,		0.00,
13042021_19:57:56,	6.197,	6.311,		138,		5.259,		-25154,		-1.81,	0.14,		1000000.00,	-1,		1000000.00,		-1,		0.00,
13042021_19:58:06,	6.197,	6.311,		137,		5.259,		-25155,		-1.81,	0.00,		1000000.00,	-1,		1000000.00,		-1,		0.00,
13042021_19:58:17,	6.197,	6.311,		136,		5.259,		-25156,		-1.81,	0.00,		1000000.00,	-1,		1000000.00,		-1,		0.00,
13042021_19:58:27,	6.198,	6.311,		135,		5.259,		-25157,		-1.79,	-0.01,		1000000.00,	-1,		1000000.00,		-1,		0.00,
13042021_19:58:38,	6.198,	6.311,		134,		5.259,		-25158,		-1.79,	-0.02,		1000000.00,	-1,		1000000.00,		-1,		0.00,
13042021_19:58:48,	6.201,	6.311,		133,		5.259,		-25159,		-1.75,	-0.04,		1000000.00,	-1,		1000000.00,		-1,		0.00,
13042021_19:58:58,	6.201,	6.311,		132,		5.259,		-25160,		-1.75,	-0.05,		1000000.00,	-1,		1000000.00,		-1,		0.00,
13042021_19:59:09,	6.201,	6.311,		131,		5.259,		-25161,		-1.75,	-0.04,		1000000.00,	-1,		1000000.00,		-1,		0.00,
13042021_19:59:19,	6.201,	6.311,		130,		5.259,		-25162,		-1.75,	-0.02,		1000000.00,	-1,		1000000.00,		-1,		0.00,
13042021_19:59:30,	6.201,	6.311,		129,		5.259,		-25163,		-1.75,	0.00,		1000000.00,	-1,		1000000.00,		-1,		0.00,
13042021_19:59:41,	6.190,	6.311,		128,		5.259,		-25164,		-1.91,	0.08,		1000000.00,	-1,		1000000.00,		-1,		0.00,
13042021_19:59:52,	6.190,	6.311,		127,		5.259,		-25165,		-1.91,	0.16,		1000000.00,	-1,		1000000.00,		-1,		0.00,
13042021_20:00:03,	6.190,	6.311,		126,		5.259,		-25166,		-1.91,	0.16,		1000000.00,	-1,		1000000.00,		-1,		0.00,
13042021_20:00:13,	6.190,	6.311,		125,		5.259,		-25167,		-1.91,	0.08,		1000000.00,	-1,		1000000.00,		-1,		0.00,
13042021_20:00:23,	6.197,	6.311,		124,		5.259,		-25168,		-1.81,	-0.05,		1000000.00,	-1,		1000000.00,		-1,		0.00,
13042021_20:00:34,	6.196,	6.311,		123,		5.259,		-25169,		-1.82,	-0.10,		1000000.00,	-1,		1000000.00,		-1,		0.00,
13042021_20:00:44,	6.196,	6.311,		122,		5.259,		-25170,		-1.82,	-0.09,		1000000.00,	-1,		1000000.00,		-1,		0.00,
13042021_20:00:54,	6.194,	6.311,		121,		5.259,		-25171,		-1.85,	-0.03,		1000000.00,	-1,		1000000.00,		-1,		0.00,
13042021_20:01:05,	6.205,	6.311,		120,		5.259,		-25172,		-1.68,	-0.05,		1000000.00,	-1,		1000000.00,		-1,		0.00,
13042021_20:01:15,	6.205,	6.311,		119,		5.259,		-25173,		-1.68,	-0.14,		1000000.00,	-1,		1000000.00,		-1,		0.00,
13042021_20:01:26,	6.210,	6.311,		118,		5.259,		-25174,		-1.59,	-0.20,		1000000.00,	-1,		1000000.00,		-1,		0.00,
13042021_20:01:37,	6.210,	6.311,		117,		5.259,		-25175,		-1.59,	-0.18,		1000000.00,	-1,		1000000.00,		-1,		0.00,
13042021_20:01:49,	6.210,	6.311,		116,		5.259,		-25176,		-1.59,	-0.09,		1000000.00,	-1,		1000000.00,		-1,		0.00,
13042021_20:01:59,	6.210,	6.311,		115,		5.259,		-25177,		-1.59,	-0.05,		1000000.00,	-1,		1000000.00,		-1,		0.00,
13042021_20:02:10,	6.210,	6.311,		114,		5.259,		-25178,		-1.59,	0.00,		1000000.00,	-1,		1000000.00,		-1,		0.00,
13042021_20:02:20,	6.210,	6.311,		113,		5.259,		-25179,		-1.59,	0.00,		1000000.00,	-1,		1000000.00,		-1,		0.00,
13042021_20:02:30,	6.198,	6.311,		112,		5.259,		-25180,		-1.80,	0.10,		1000000.00,	-1,		1000000.00,		-1,		0.00,
13042021_20:02:41,	6.196,	6.311,		111,		5.259,		-25181,		-1.83,	0.22,		1000000.00,	-1,		1000000.00,		-1,		0.00,
13042021_20:02:51,	6.196,	6.311,		110,		5.259,		-25182,		-1.83,	0.24,		1000000.00,	-1,		1000000.00,		-1,		0.00,
13042021_20:03:01,	6.196,	6.311,		109,		5.259,		-25183,		-1.83,	0.13,		1000000.00,	-1,		1000000.00,		-1,		0.00,
13042021_20:03:13,	6.200,	6.311,		108,		5.259,		-25184,		-1.76,	-0.02,		1000000.00,	-1,		1000000.00,		-1,		0.00,
13042021_20:03:23,	6.200,	6.311,		107,		5.259,		-25185,		-1.76,	-0.07,		1000000.00,	-1,		1000000.00,		-1,		0.00,
13042021_20:03:34,	6.182,	6.311,		106,		5.259,		-25186,		-2.04,	0.08,		1000000.00,	-1,		1000000.00,		-1,		0.00,
13042021_20:03:45,	6.182,	6.311,		105,		5.259,		-25187,		-2.04,	0.26,		1000000.00,	-1,		1000000.00,		-1,		0.00,
13042021_20:03:56,	6.200,	6.311,		104,		5.259,		-25188,		-1.76,	0.15,		1000000.00,	-1,		1000000.00,		-1,		0.00,
13042021_20:04:07,	6.186,	6.311,		103,		5.259,		-25189,		-1.97,	-0.03,		1000000.00,	-1,		1000000.00,		-1,		0.00,
13042021_20:04:17,	6.189,	6.311,		102,		5.259,		-25190,		-1.94,	-0.09,		1000000.00,	-1,		1000000.00,		-1,		0.00,
13042021_20:04:28,	6.192,	6.311,		101,		5.259,		-25191,		-1.89,	0.01,		1000000.00,	-1,		1000000.00,		-1,		0.00,
13042021_20:04:38,	6.205,	6.311,		100,		5.259,		-25192,		-1.68,	-0.09,		1000000.00,	-1,		1000000.00,		-1,		0.00,
13042021_20:04:48,	6.205,	6.311,		99,		5.259,		-25193,		-1.68,	-0.28,		1000000.00,	-1,		1000000.00,		-1,		0.00,
13042021_20:04:59,	6.202,	6.311,		98,		5.259,		-25194,		-1.73,	-0.21,		1000000.00,	-1,		1000000.00,		-1,		0.00,
13042021_20:05:09,	6.197,	6.311,		97,		5.259,		-25195,		-1.81,	-0.01,		1000000.00,	-1,		1000000.00,		-1,		0.00,
13042021_20:05:19,	6.188,	6.311,		96,		5.259,		-25196,		-1.96,	0.21,		1000000.00,	-1,		1000000.00,		-1,		0.00,
13042021_20:05:30,	6.184,	6.311,		95,		5.259,		-25197,		-2.01,	0.28,		1000000.00,	-1,		1000000.00,		-1,		0.00,
13042021_20:05:41,	6.184,	6.311,		94,		5.259,		-25198,		-2.01,	0.24,		1000000.00,	-1,		1000000.00,		-1,		0.00,
13042021_20:05:53,	6.198,	6.311,		93,		5.259,		-25199,		-1.80,	0.02,		1000000.00,	-1,		1000000.00,		-1,		0.00,
13042021_20:06:04,	6.198,	6.311,		92,		5.259,		-25200,		-1.80,	-0.19,		1000000.00,	-1,		1000000.00,		-1,		0.00,
13042021_20:06:15,	6.200,	6.311,		91,		5.259,		-25201,		-1.75,	-0.24,		1000000.00,	-1,		1000000.00,		-1,		0.00,
13042021_20:06:25,	6.200,	6.311,		90,		5.259,		-25202,		-1.75,	-0.15,		1000000.00,	-1,		1000000.00,		-1,		0.00,
13042021_20:06:35,	6.199,	6.311,		89,		5.259,		-25203,		-1.78,	-0.03,		1000000.00,	-1,		1000000.00,		-1,		0.00,
13042021_20:06:46,	6.200,	6.311,		88,		5.259,		-25204,		-1.76,	-0.00,		1000000.00,	-1,		1000000.00,		-1,		0.00,
13042021_20:06:56,	6.189,	6.311,		87,		5.259,		-25205,		-1.94,	0.10,		1000000.00,	-1,		1000000.00,		-1,		0.00,
13042021_20:07:06,	6.184,	6.311,		86,		5.259,		-25206,		-2.02,	0.22,		1000000.00,	-1,		1000000.00,		-1,		0.00,
13042021_20:07:17,	6.192,	6.311,		85,		5.259,		-25207,		-1.89,	0.18,		1000000.00,	-1,		1000000.00,		-1,		0.00,
13042021_20:07:27,	6.198,	6.311,		84,		5.259,		-25208,		-1.79,	-0.01,		1000000.00,	-1,		1000000.00,		-1,		0.00,
13042021_20:07:38,	6.188,	6.311,		83,		5.259,		-25209,		-1.96,	-0.11,		1000000.00,	-1,		1000000.00,		-1,		0.00,
13042021_20:07:49,	6.191,	6.311,		82,		5.259,		-25210,		-1.90,	-0.02,		1000000.00,	-1,		1000000.00,		-1,		0.00,
13042021_20:08:01,	6.207,	6.311,		81,		5.259,		-25211,		-1.64,	-0.07,		1000000.00,	-1,		1000000.00,		-1,		0.00,
13042021_20:08:11,	6.209,	6.311,		80,		5.259,		-25212,		-1.62,	-0.25,		1000000.00,	-1,		1000000.00,		-1,		0.00,
13042021_20:08:22,	6.187,	6.311,		79,		5.259,		-25213,		-1.97,	-0.14,		1000000.00,	-1,		1000000.00,		-1,		0.00,
13042021_20:08:32,	6.187,	6.311,		78,		5.259,		-25214,		-1.97,	0.20,		1000000.00,	-1,		1000000.00,		-1,		0.00,
13042021_20:08:42,	6.187,	6.311,		77,		5.259,		-25215,		-1.97,	0.34,		1000000.00,	-1,		1000000.00,		-1,		0.00,
13042021_20:08:53,	6.183,	6.311,		76,		5.259,		-25216,		-2.03,	0.21,		1000000.00,	-1,		1000000.00,		-1,		0.00,
13042021_20:09:03,	6.184,	6.311,		75,		5.259,		-25217,		-2.01,	0.05,		1000000.00,	-1,		1000000.00,		-1,		0.00,
13042021_20:09:14,	6.184,	6.311,		74,		5.259,		-25218,		-2.01,	0.04,		1000000.00,	-1,		1000000.00,		-1,		0.00,
13042021_20:09:24,	6.182,	6.311,		73,		5.259,		-25219,		-2.05,	0.03,		1000000.00,	-1,		1000000.00,		-1,		0.00,
13042021_20:09:34,	6.180,	6.311,		72,		5.259,		-25220,		-2.07,	0.05,		1000000.00,	-1,		1000000.00,		-1,		0.00,
13042021_20:09:45,	6.188,	6.311,		71,		5.259,		-25221,		-1.94,	0.00,		1000000.00,	-1,		1000000.00,		-1,		0.00,
13042021_20:09:57,	6.180,	6.311,		70,		5.259,		-25222,		-2.08,	-0.02,		1000000.00,	-1,		1000000.00,		-1,		0.00,
13042021_20:10:08,	6.180,	6.311,		69,		5.259,		-25223,		-2.08,	0.01,		1000000.00,	-1,		1000000.00,		-1,		0.00,
13042021_20:10:18,	6.196,	6.311,		68,		5.259,		-25224,		-1.82,	-0.06,		1000000.00,	-1,		1000000.00,		-1,		0.00,
13042021_20:10:28,	6.181,	6.311,		67,		5.259,		-25225,		-2.06,	-0.07,		1000000.00,	-1,		1000000.00,		-1,		0.00,
13042021_20:10:39,	6.181,	6.311,		66,		5.259,		-25226,		-2.06,	-0.02,		1000000.00,	-1,		1000000.00,		-1,		0.00,
13042021_20:10:49,	6.177,	6.311,		65,		5.259,		-25227,		-2.13,	0.15,		1000000.00,	-1,		1000000.00,		-1,		0.00,
13042021_20:10:59,	6.177,	6.311,		64,		5.259,		-25228,		-2.13,	0.19,		1000000.00,	-1,		1000000.00,		-1,		0.00,
13042021_20:11:10,	6.196,	6.311,		63,		5.259,		-25229,		-1.83,	-0.08,		1000000.00,	-1,		1000000.00,		-1,		0.00,
13042021_20:11:20,	6.198,	6.311,		62,		5.259,		-25230,		-1.79,	-0.29,		1000000.00,	-1,		1000000.00,		-1,		0.00,
13042021_20:11:31,	6.189,	6.311,		61,		5.259,		-25231,		-1.93,	-0.27,		1000000.00,	-1,		1000000.00,		-1,		0.00,
13042021_20:11:41,	6.200,	6.311,		60,		5.259,		-25232,		-1.75,	-0.14,		1000000.00,	-1,		1000000.00,		-1,		0.00,
13042021_20:11:53,	6.200,	6.311,		59,		5.259,		-25233,		-1.75,	-0.05,		1000000.00,	-1,		1000000.00,		-1,		0.00,
13042021_20:12:04,	6.202,	6.311,		58,		5.259,		-25234,		-1.73,	-0.12,		1000000.00,	-1,		1000000.00,		-1,		0.00,
13042021_20:12:14,	6.202,	6.311,		57,		5.259,		-25235,		-1.73,	-0.11,		1000000.00,	-1,		1000000.00,		-1,		0.00,
13042021_20:12:25,	6.196,	6.311,		56,		5.259,		-25236,		-1.82,	0.02,		1000000.00,	-1,		1000000.00,		-1,		0.00,
13042021_20:12:35,	6.209,	6.311,		55,		5.259,		-25237,		-1.61,	-0.03,		1000000.00,	-1,		1000000.00,		-1,		0.00,
13042021_20:12:46,	6.218,	6.311,		54,		5.259,		-25238,		-1.48,	-0.19,		1000000.00,	-1,		1000000.00,		-1,		0.00,
13042021_20:12:56,	6.216,	6.311,		53,		5.259,		-25239,		-1.51,	-0.29,		1000000.00,	-1,		1000000.00,		-1,		0.00,
13042021_20:13:07,	6.216,	6.311,		52,		5.259,		-25240,		-1.51,	-0.21,		1000000.00,	-1,		1000000.00,		-1,		0.00,
13042021_20:13:17,	6.199,	6.311,		51,		5.259,		-25241,		-1.77,	0.09,		1000000.00,	-1,		1000000.00,		-1,		0.00,
13042021_20:13:27,	6.206,	6.311,		50,		5.259,		-25242,		-1.66,	0.22,		1000000.00,	-1,		1000000.00,		-1,		0.00,
13042021_20:13:38,	6.206,	6.311,		49,		5.259,		-25243,		-1.66,	0.15,		1000000.00,	-1,		1000000.00,		-1,		0.00,
13042021_20:13:48,	6.206,	6.311,		48,		5.259,		-25244,		-1.66,	0.02,		1000000.00,	-1,		1000000.00,		-1,		0.00,
13042021_20:14:00,	6.203,	6.311,		47,		5.259,		-25245,		-1.71,	-0.03,		1000000.00,	-1,		1000000.00,		-1,		0.00,
13042021_20:14:10,	6.203,	6.311,		46,		5.259,		-25246,		-1.71,	0.05,		1000000.00,	-1,		1000000.00,		-1,		0.00,
13042021_20:14:21,	6.203,	6.311,		45,		5.259,		-25247,		-1.71,	0.05,		1000000.00,	-1,		1000000.00,		-1,		0.00,
13042021_20:14:31,	6.221,	6.311,		44,		5.259,		-25248,		-1.43,	-0.12,		1000000.00,	-1,		1000000.00,		-1,		0.00,
13042021_20:14:41,	6.223,	6.311,		43,		5.259,		-25249,		-1.39,	-0.31,		1000000.00,	-1,		1000000.00,		-1,		0.00,
13042021_20:14:52,	6.238,	6.311,		42,		5.259,		-25250,		-1.16,	-0.45,		1000000.00,	-1,		1000000.00,		-1,		0.00,
13042021_20:15:02,	6.228,	6.311,		41,		5.259,		-25251,		-1.32,	-0.33,		1000000.00,	-1,		1000000.00,		-1,		0.00,
13042021_20:15:13,	6.228,	6.311,		40,		5.259,		-25252,		-1.32,	-0.09,		1000000.00,	-1,		1000000.00,		-1,		0.00,
13042021_20:15:23,	6.228,	6.311,		39,		5.259,		-25253,		-1.32,	0.05,		1000000.00,	-1,		1000000.00,		-1,		0.00,
13042021_20:15:33,	6.228,	6.311,		38,		5.259,		-25254,		-1.32,	0.08,		1000000.00,	-1,		1000000.00,		-1,		0.00,
13042021_20:15:44,	6.228,	6.311,		37,		5.259,		-25255,		-1.32,	0.00,		1000000.00,	-1,		1000000.00,		-1,		0.00,
13042021_20:15:56,	6.228,	6.311,		36,		5.259,		-25256,		-1.32,	0.00,		1000000.00,	-1,		1000000.00,		-1,		0.00,
13042021_20:16:08,	6.225,	6.311,		35,		5.259,		-25257,		-1.36,	0.02,		1000000.00,	-1,		1000000.00,		-1,		0.00,
13042021_20:16:18,	6.237,	6.311,		34,		5.259,		-25258,		-1.17,	-0.06,		1000000.00,	-1,		1000000.00,		-1,		0.00,
13042021_20:16:28,	6.240,	6.311,		33,		5.259,		-25259,		-1.13,	-0.18,		1000000.00,	-1,		1000000.00,		-1,		0.00,
13042021_20:16:39,	6.235,	6.311,		32,		5.259,		-25260,		-1.20,	-0.18,		1000000.00,	-1,		1000000.00,		-1,		0.00,
13042021_20:16:49,	6.235,	6.311,		31,		5.259,		-25261,		-1.20,	-0.07,		1000000.00,	-1,		1000000.00,		-1,		0.00,
13042021_20:16:59,	6.235,	6.311,		30,		5.259,		-25262,		-1.20,	0.05,		1000000.00,	-1,		1000000.00,		-1,		0.00,
13042021_20:17:10,	6.235,	6.311,		29,		5.259,		-25263,		-1.20,	0.04,		1000000.00,	-1,		1000000.00,		-1,		0.00,
13042021_20:17:20,	6.246,	6.311,		28,		5.259,		-25264,		-1.04,	-0.08,		1000000.00,	-1,		1000000.00,		-1,		0.00,
13042021_20:17:31,	6.245,	6.311,		27,		5.259,		-25265,		-1.05,	-0.16,		1000000.00,	-1,		1000000.00,		-1,		0.00,
13042021_20:17:41,	6.245,	6.311,		26,		5.259,		-25266,		-1.05,	-0.16,		1000000.00,	-1,		1000000.00,		-1,		0.00,
13042021_20:17:52,	6.245,	6.311,		25,		5.259,		-25267,		-1.05,	-0.07,		1000000.00,	-1,		1000000.00,		-1,		0.00,
13042021_20:18:04,	6.242,	6.311,		24,		5.259,		-25268,		-1.09,	0.03,		1000000.00,	-1,		1000000.00,		-1,		0.00,
13042021_20:18:14,	6.241,	6.311,		23,		5.259,		-25269,		-1.11,	0.06,		1000000.00,	-1,		1000000.00,		-1,		0.00,
13042021_20:18:25,	6.226,	6.311,		22,		5.259,		-25270,		-1.34,	0.18,		1000000.00,	-1,		1000000.00,		-1,		0.00,
13042021_20:18:35,	6.245,	6.311,		21,		5.259,		-25271,		-1.05,	0.12,		1000000.00,	-1,		1000000.00,		-1,		0.00,
13042021_20:18:45,	6.243,	6.311,		20,		5.259,		-25272,		-1.07,	-0.05,		1000000.00,	-1,		1000000.00,		-1,		0.00,
13042021_20:18:56,	6.243,	6.311,		19,		5.259,		-25273,		-1.07,	-0.16,		1000000.00,	-1,		1000000.00,		-1,		0.00,
13042021_20:19:06,	6.243,	6.311,		18,		5.259,		-25274,		-1.07,	-0.12,		1000000.00,	-1,		1000000.00,		-1,		0.00,
13042021_20:19:17,	6.243,	6.311,		17,		5.259,		-25275,		-1.07,	0.01,		1000000.00,	-1,		1000000.00,		-1,		0.00,
13042021_20:19:27,	6.264,	6.311,		16,		5.259,		-25276,		-0.74,	-0.17,		1000000.00,	-1,		1000000.00,		-1,		0.00,
13042021_20:19:37,	6.264,	6.311,		15,		5.259,		-25277,		-0.74,	-0.34,		1000000.00,	-1,		1000000.00,		-1,		0.00,
13042021_20:19:48,	6.264,	6.311,		14,		5.259,		-25278,		-0.74,	-0.34,		1000000.00,	-1,		1000000.00,		-1,		0.00,
13042021_20:20:00,	6.264,	6.311,		13,		5.259,		-25279,		-0.74,	-0.17,		1000000.00,	-1,		1000000.00,		-1,		0.00,